Content
SEND FEEDBACK

Daily
Averages
Monthly
Summary
Netherlands

ROTTERDAM, NETHERLANDS


Home > Europe > Netherlands
Elevation: 13 feet     Latitude: 51 57N     Longitude: 004 26E

WEATHER
 
SELECT A DAY
Number of Records: 416,328;   Date Range: 7/1/96 - 9/15/14
 
SHARE

PRINT THIS DATA

[ ← Previous Day ]
WEATHER ALMANAC - JUNE 19, 2013
[ Next Day → ]
[ °C ]   °F
Weather ElementAverageHighLow
Temperature68.6 °F75.2 °F (2:25 pm)60.8 °F (11:55 pm)
Dewpoint62.2 °F65 °F (8:00 pm)59 °F (10:25 pm)
Humidity79.5 %94 % (11:55 pm)60 % (2:00 pm)
Barometer29.93 in29.98 in (11:00 pm)29.86 in (6:25 pm)
Wind Speed6.3 mph18.4 mph (10:55 am)
Weather ElementAverage
Visibility5.4 mi
Wind DirectionSSW (197.2 °)

Weather ElementTotal
Precipitation---
Cooling Degree Days3 (Base 65)
Growing Degree Days18 (Base 50)
Averaged from 55 records on June 19, 2013
WEATHER CONDITIONS BREAKOUT
WIND DIRECTION BREAKOUT
WEATHER BY HOUR - JUNE 19, 2013
[ °C ]   °F
Local TimeTemperatureDewpointHumidityBarometerVisibilityWind DirectionWind SpeedGust SpeedPrecipitationEventsConditions
12:55 AM64.4 °F60.8 °F88 %29.95 in6.2 miNNW (340°)3.5 mph
1:25 AM64.4 °F60.8 °F88 %29.95 in5.6 miVariable2.3 mph
1:55 AM64.4 °F60.8 °F88 %29.95 in3.7 miNW (320°)3.5 mph
2:00 AM64.0 °F62.0 °F89 %29.96 in4.0 miNNW (330°)4.5 mphMist
2:25 AM64.4 °F60.8 °F88 %29.95 in3.7 miNW (320°)3.5 mph
2:55 AM64.4 °F60.8 °F88 %29.92 in3.7 miNNE (30°)2.3 mph
3:25 AM64.4 °F60.8 °F88 %29.92 in4.3 miVariable2.3 mph
3:55 AM66.2 °F60.8 °F83 %29.92 in4.3 miVariable1.2 mph
4:25 AM64.4 °F60.8 °F88 %29.92 in3.7 miWNW (290°)3.5 mph
4:55 AM64.4 °F60.8 °F88 %29.92 in3.7 miVariable2.3 mph
5:00 AM65.0 °F61.0 °F84 %29.92 in4.0 miNNW (340°)2.2 mphMist
5:25 AM64.4 °F60.8 °F88 %29.89 in4.3 miNE (40°)3.5 mph
5:55 AM64.4 °F60.8 °F88 %29.89 in4.3 miNorth (350°)3.5 mph
6:25 AM64.4 °F60.8 °F88 %29.89 in4.3 miVariable2.3 mph
6:55 AM66.2 °F62.6 °F88 %29.89 in3.7 miVariable2.3 mph
7:25 AM66.2 °F62.6 °F88 %29.89 in3.7 miWNW (300°)4.6 mph
7:55 AM68.0 °F62.6 °F83 %29.89 in5.0 miVariable2.3 mph
8:00 AM67.0 °F63.0 °F81 %29.92 in4.0 miNNW (330°)4.5 mphMist
8:25 AM66.2 °F62.6 °F88 %29.92 in3.7 miNNE (20°)3.5 mph
8:55 AM68.0 °F62.6 °F83 %29.92 in4.3 miWest (280°)3.5 mph
9:25 AM68.0 °F62.6 °F83 %29.95 inWest (280°)4.6 mphRainLight Rain
9:55 AM68.0 °F64.4 °F88 %29.95 inWest (260°)5.8 mphDrizzle
10:25 AM69.8 °F64.4 °F83 %29.95 inNW (320°)8.1 mphMist
10:55 AM68.0 °F62.6 °F83 %29.89 in3.1 miNNW (330°)18.4 mphMist
11:00 AM68.0 °F62.0 °F77 %29.91 in3.0 miNNW (330°)15.7 mphMist
11:25 AM68.0 °F60.8 °F78 %29.89 in4.3 miNNW (340°)15.0 mphDrizzle
11:55 AM69.8 °F62.6 °F78 %29.89 in6.2 miNNW (330°)11.5 mph
12:25 PM68.0 °F62.6 °F83 %29.92 in6.2 miNNW (340°)11.5 mphRainLight Rain
12:55 PM68.0 °F60.8 °F78 %29.95 in6.2 miNorth (350°)9.2 mph
1:25 PM71.6 °F60.8 °F69 %29.95 in6.2 miNNE (20°)8.1 mph
1:55 PM73.4 °F62.6 °F69 %29.95 in6.2 miNNE (30°)11.5 mph
2:00 PM74.0 °F63.0 °F60 %29.94 in9.0 miNNE (30°)11.2 mphPartly Cloudy
2:25 PM75.2 °F62.6 °F65 %29.92 in6.2 miNNE (20°)8.1 mph
2:55 PM75.2 °F64.4 °F69 %29.92 in6.2 miNorth (350°)8.1 mph
3:25 PM73.4 °F62.6 °F69 %29.92 in6.2 miNorth (350°)9.2 mph
3:55 PM75.2 °F64.4 °F69 %29.92 in6.2 miNNE (30°)8.1 mph
4:25 PM75.2 °F62.6 °F65 %29.95 in6.2 miNE (40°)9.2 mph
4:55 PM75.2 °F64.4 °F69 %29.95 in6.2 miNNE (30°)6.9 mph
5:00 PM75.0 °F64.0 °F62 %29.96 in9.0 miENE (60°)8.9 mphMostly Cloudy
5:25 PM75.2 °F64.4 °F69 %29.92 in6.2 miNE (40°)6.9 mphRainLight Rain
5:55 PM75.2 °F64.4 °F69 %29.92 in6.2 miENE (60°)8.1 mph
6:25 PM73.4 °F64.4 °F73 %29.86 in6.2 miENE (60°)12.7 mph
6:55 PM75.2 °F64.4 °F69 %29.89 in6.2 miNNW (330°)5.8 mph
7:25 PM75.2 °F64.4 °F69 %29.89 in6.2 miNorth (10°)5.8 mph
7:55 PM75.2 °F64.4 °F69 %29.89 in6.2 miNorth (360°)4.6 mph
8:00 PM74.0 °F65.0 °F65 %29.92 in14.0 miNNW (340°)6.7 mphPartly Cloudy
8:25 PM73.4 °F64.4 °F73 %29.92 in6.2 miNNW (340°)5.8 mph
8:55 PM69.8 °F62.6 °F78 %29.92 in6.2 miNNW (340°)8.1 mph
9:25 PM66.2 °F60.8 °F83 %29.95 in6.2 miNNW (330°)9.2 mph
9:55 PM64.4 °F60.8 °F88 %29.95 in6.2 miNorth (350°)5.8 mph
10:25 PM64.4 °F59.0 °F83 %29.95 in6.2 miNorth (360°)5.8 mph
10:55 PM62.6 °F59.0 °F88 %29.95 in5.6 miNW (310°)4.6 mph
11:00 PM63.0 °F60.0 °F85 %29.98 in5.0 mi°2.2 mphMist
11:25 PM62.6 °F59.0 °F88 %29.98 in5.0 miVariable2.3 mph
11:55 PM60.8 °F59.0 °F94 %29.98 in3.7 miWNW (290°)4.6 mph
Hourly data recorded from EHRD, located miles away from Rotterdam, Netherlands







STORIES FROM OUR PARTNERS